sat.trackr.live / text

‹ back to catalog

STARLINK-37089

NORAD 69183 · 2026-114B

PAYLOAD ACTIVE UNKNOWN

§ Identity

Operator
Country
US
Launch date
2026-05-25
Launch site
AFETR
Launch vehicle
Mass (kg)
RCS (m²)

Purposes: comms

External: N2YO · Heavens-Above · Gunter

§ Orbital elements

Epoch: 2026-09-19T22:13:29.830080Z

Period
93.85 min
Inclination
53.1590°
Eccentricity
0.0001850
Mean motion
15.34392658 rev/d
Perigee alt
461.5 km
Apogee alt
464.0 km
Semi-major
6,840.9 km
B*
4.7210e-4
RAAN
116.7302°
Arg perigee
68.3632°
Mean anomaly
291.7567°
Rev number
1,935

§ Raw data

STARLINK-370891 69183U 26114B   26262.92603970  .00015604  00000+0  47210-3 0  99972 69183  53.1590 116.7302 0001850  68.3632 291.7567 15.34392658 19355

JSON: /api/v1/satellites/69183 · /tle

For live sub-satellite position, see the globe view (requires WebGL).

§ Visibility from observer

Set your observer location to see the next 7 days of passes ≥ 10°. The values pass through the URL so the page stays shareable.

No JS? Fill the form by hand. The geolocation button needs JavaScript.